Regional Weather Roundup
Issued by NWS

Home | Current Version | Previous Version | Text Only | Print | Product List | Glossary Off
Versions: 1 2 3 4 5 6 7 8 9 10 11 12 13 14 15 16 17 18 19 20 21 22 23 24 25 26 27 28 29 30 31 32 33 34 35 36 37 38 39 40 41 42 43 44 45 46 47 48 49 50

000
ASUS45 KCYS 181310
RWRWY

WYOMING REGIONAL WEATHER ROUNDUP
NATIONAL WEATHER SERVICE CHEYENNE WY
700 AM MDT THU SEP 18 2014

NOTE:  "FAIR" INDICATES FEW OR NO CLOUDS BELOW 12,000 FEET
WITH NO SIGNIFICANT WEATHER AND/OR OBSTRUCTIONS TO VISIBILITY.

WYZ001-181400-
YELLOWSTONE NATIONAL PARK

CITY           SKY/WX    TMP DP  RH WIND       PRES   REMARKS
LK YELLOWSTONE   N/A     44  41  89 CALM      30.17R
W YELLOWSTONE  NOT AVBL

$$
WYZ002>013-054>058-071-098>099-181400-
NORTHERN WYOMING

CITY           SKY/WX    TMP DP  RH WIND       PRES   REMARKS
JACKSON        MOCLDY    46  41  81 CALM      30.08R
CODY             N/A    N/A N/A N/A MISG        N/A
GREYBULL       MOCLDY    51  45  79 CALM      29.88S
WORLAND        MOCLDY    51  45  79 S6        29.89S
SHERIDAN       PTCLDY    54  47  77 CALM      29.84S
BUFFALO        PTCLDY    65  39  38 SE8       29.92S
GILLETTE       PTCLDY    62  46  55 SW8       29.89F
HULETT         FAIR      54  46  76 MISG      29.91
NEWCASTLE      FAIR      50  46  87 N3        29.95

$$
WYZ014>020-022>026-101>103-181400-
CENTRAL WYOMING

CITY           SKY/WX    TMP DP  RH WIND       PRES   REMARKS
BIG PINEY      PTCLDY    40  36  86 CALM      30.14S
PINEDALE       MOSUNNY   36  36 100 W6        30.15R WCI  31
DUBOIS         PTSUNNY   45  36  70 NW10      30.11F
LANDER         PTCLDY    50  38  63 NE3       29.99F
RIVERTON       MOCLDY    53  40  61 W6        30.01S
CASPER         CLEAR     45  38  76 SW3       30.01S
DOUGLAS        CLEAR     44  39  82 CALM      30.01S

$$
WYZ021-027>030-104>119-181400-
SOUTHERN WYOMING

CITY           SKY/WX    TMP DP  RH WIND       PRES   REMARKS
EVANSTON       PTCLDY    55  36  48 S9        30.13R
KEMMERER       MOSUNNY   45  37  76 N8        30.14R
FORT BRIDGER   FAIR      57  36  45 N3        30.14S
ROCK SPRINGS   PTCLDY    51  34  52 SE5       30.11S
DIXON          FAIR      44  38  79 CALM      30.16R
RAWLINS        PTCLDY    40  34  79 CALM      30.14R
SARATOGA       FAIR      46  36  66 CALM      30.16F
LARAMIE        PTCLDY    42  35  76 S7        30.18R
CHEYENNE       CLEAR     53  38  56 W10       30.09R
TORRINGTON     CLEAR     47  44  90 NW3       29.96R
PINE BLUFFS    FAIR      43  39  87 S3        30.04R

$$



USA.gov is the U.S. government's official web portal to all federal, state and local government web resources and services.